Theta_e
293 294 295 296 297 299 301 305 308 310 312 316 321 321 321 320 320 320 318 317 316 315
293 293 293 295 297 298 301 305 308 310 310 312 318 321 321 320 319 319 319 318 317 316
292 293 294 296 297 299 301 303 305 310 311 311 318 320 319 318 318 317 314 315 315 313
291 292 293 294 296 297 298 300 302 305 307 309 310 312 311 309 309 306 304 304 303 301
290 291 291 292 293 295 296 298 298 301 302 303 303 304 304 302 302 302 300 299 299 298
288 289 290 290 291 292 294 294 296 297 297 298 299 298 298 298 296 296 294 295 295 295
287 288 288 289 289 290 291 292 293 294 295 295 295 295 295 294 292 291 291 291 292 292
287 287 288 288 288 289 289 290 291 292 292 293 293 293 292 291 290 289 288 289 289 289
286 286 286 286 287 287 287 288 289 289 289 290 290 291 291 290 289 288 287 286 286 286
285 285 285 285 285 285 285 286 286 287 288 288 288 289 288 287 286 285 284 284 284 283
284 283 283 284 283 284 284 284 285 285 286 286 287 288 287 286 285 284 283 282 282 282
281 280 281 281 282 281 282 283 283 284 284 283 284 287 286 284 282 282 281 282 282 282
281 280 279 280 280 280 281 282 282 282 281 281 283 287 286 283 282 281 281 282 283 283
280 280 280 279 279 279 279 278 277 278 278 279 281 284 286 285 282 281 281 280 281 282
Wind_Speed
5 3 4 3 4 4 4 5 6 6 4 5 4 5 6 4 6 7 8 10 8 6
6 5 4 5 5 4 5 5 7 7 5 5 6 6 6 6 8 7 8 7 8 7
7 8 7 6 5 5 5 5 7 5 5 6 5 4 4 3 3 4 1 1 2 1
6 7 7 6 6 6 5 6 6 5 4 3 4 2 5 5 4 6 5 5 7 7
6 6 6 6 6 6 5 5 5 3 3 3 4 4 6 6 5 6 6 6 6 4
6 6 6 6 6 6 5 5 5 6 5 6 6 7 7 7 7 6 7 8 6 6
6 6 5 6 6 6 6 6 6 6 7 7 8 8 7 9 9 8 9 8 8 7
5 5 5 6 6 7 7 7 7 7 8 9 8 5 8 8 9 9 9 9 9 10
5 5 5 5 5 6 7 7 8 8 9 9 7 14 13 7 8 9 8 9 8 8
5 5 5 6 7 7 7 7 8 7 8 8 8 14 15 12 8 8 8 6 6 7
5 5 5 5 6 6 5 6 5 7 8 8 7 13 15 14 9 8 8 6 5 7
3 4 4 4 4 3 4 5 6 5 5 6 6 12 12 11 8 8 7 6 5 5
4 4 5 4 3 2 4 3 3 5 5 5 6 9 9 8 4 7 5 5 6 9
4 4 4 2 2 3 4 4 4 6 5 5 5 5 8 7 3 4 4 4 3 3
Wind_Direction
320 310 306 313 314 308 308 313 309 306 317 313 225 211 205 212 221 229 221 216 209 210
333 320 308 302 288 281 289 300 317 283 282 272 270 221 223 226 220 217 221 218 222 219
337 325 326 317 310 320 317 321 307 303 266 252 247 230 214 238 216 188 352 285 221 148
343 336 334 330 333 328 323 333 321 323 326 22 77 70 95 68 66 91 84 67 83 76
356 348 353 350 343 343 343 345 344 346 21 58 72 66 77 90 75 97 103 88 99 102
2 2 1 359 360 9 11 19 24 32 31 40 51 71 65 78 72 59 65 70 70 52
7 357 0 10 15 24 22 32 34 42 51 54 57 68 79 79 75 71 59 59 61 64
6 12 5 21 22 29 33 36 39 47 50 52 54 56 77 82 86 86 79 64 67 70
13 15 15 22 25 39 40 40 52 52 57 58 60 68 73 88 96 89 84 86 73 68
17 23 17 18 30 27 34 44 49 55 71 70 75 88 86 82 83 88 89 88 85 84
31 28 19 35 40 31 25 37 45 44 55 71 77 90 94 88 83 79 71 67 80 91
91 82 60 55 55 39 43 45 52 48 54 78 76 90 94 93 89 86 77 70 64 91
125 121 104 84 61 57 62 62 59 69 42 57 86 93 93 86 91 95 92 72 74 90
136 124 105 75 61 80 80 75 58 66 37 33 57 101 105 99 63 98 93 87 81 75